Location: Observatorio Las Palmas
(29.0667°N, 110.9333°W)
Time: 06:32:55
(UTC-07:00)

Skynet4D Del rocket - Visible Passes

Search period start: 29 April 2017 00:00
Search period end: 09 May 2017 00:00
Orbit: 763 x 1291 km, 26.9° (Epoch: 27 April)

Date Brightness Start Highest point End Pass type
(mag) Time Alt. Az. Time Alt. Az. Time Alt. Az.
29 Apr 4.7 19:13:34 10° W 19:21:57 78° S 19:30:06 10° E visible
29 Apr 4.5 21:07:02 10° W 21:15:13 60° SSW 21:16:27 54° SSE visible
29 Apr 6.6 23:01:15 10° W 23:02:04 13° W 23:02:04 13° W visible
30 Apr 4.6 19:55:08 10° W 20:03:30 71° S 20:09:30 20° ESE visible
30 Apr 5.2 21:48:50 10° W 21:55:07 39° SW 21:55:07 39° SW visible
01 May 4.8 20:36:47 10° W 20:44:56 56° SSW 20:48:11 36° SE visible
01 May 6.3 22:31:09 10° W 22:33:47 18° WSW 22:33:47 18° WSW visible
02 May 4.8 19:24:57 10° W 19:33:12 68° S 19:41:13 11° ESE visible
02 May 5.1 21:18:39 10° W 21:26:12 38° SSW 21:26:51 37° SSW visible
03 May 5.0 20:06:36 10° W 20:14:36 51° SSW 20:19:54 22° SE visible
03 May 6.0 22:01:11 10° WSW 22:05:32 21° SW 22:05:32 21° SW visible
04 May 5.4 20:48:34 10° W 20:55:51 34° SSW 20:58:37 27° S visible
05 May 5.2 19:36:31 10° W 19:44:16 46° SSW 19:51:42 12° SE visible
05 May 6.0 21:31:24 10° WSW 21:36:58 20° SSW 21:37:20 19° SSW visible
06 May 5.7 20:18:37 10° W 20:25:30 29° SSW 20:30:28 17° SSE visible
07 May 6.2 21:01:53 10° WSW 21:06:38 16° SSW 21:09:14 14° S visible
08 May 6.0 19:48:50 10° WSW 19:55:11 25° SSW 20:01:40 10° SSE visible
